BEIDOU-3 G1 (C59)

Last updated on Aug. 8, 2020, 5:33 a.m. UTC

1 43683U 18085A   20220.58001009 -.00000288  00000-0  00000-0 0  9994
2 43683   1.6602 253.1806 0003920 342.9956  69.1813  1.00273677  6612
UTC
Height (km)
Latitude
Longitude
Inclination
Orbital Period
UTC large
Height (km)
Speed (km/s)
/
Latitude / Longitude
Inclination (degrees)
Orbital Period (minutes)
Azimuth
Elevation
Range (km)
Doppler Factor
iOS Compass Heading
iOS Angle

Next 30 passes for location: Hong Kong

Rise time Rise Azimuth (degrees) Set time Set Azimuth (degrees) Duration Max altitude (degrees)

No matching passes for this satellites